Regional Weather Roundup
Issued by NWS

Home | Current Version | Previous Version | Text Only | Print | Product List | Glossary On
Versions: 1 2 3 4 5 6 7 8 9 10 11 12 13 14 15 16 17 18 19 20 21 22 23 24 25 26 27 28 29 30 31 32 33 34 35 36 37 38 39 40 41 42 43 44 45 46 47 48 49 50
000
ASUS43 KLSX 281459
RWRMO

WEATHER SUMMARY FOR MISSOURI
NATIONAL WEATHER SERVICE SPRINGFIELD MO
900 AM CST SUN DEC 28 2014

NOTE: "FAIR" INDICATES FEW OR NO CLOUDS BELOW 12,000 FEET WITH NO
       SIGNIFICANT WEATHER AND/OR OBSTRUCTIONS TO VISIBILITY.
       CURRENT SKY AND/OR WEATHER CONDITIONS ARE NOT AVAILABLE FOR
       CHILLICOTHE AND FARMINGTON.

MOZ001>031-035>038-043-044-053-054-281600-
...NORTHERN AND WESTERN MISSOURI...

CITY           SKY/WX    TMP DP  RH WIND       PRES   REMARKS
KANSAS CTY INT MOSUNNY   23  19  85 S8        30.22R WCI  14
KANSAS C DTWN  SUNNY     24  19  81 SW6       30.26R WCI  17
LEE`S SUMMIT   MOSUNNY   23  19  85 SW5       30.25R WCI  17
ST JOSEPH      SUNNY     20  18  92 S6        30.23R WCI  12
CHILLICOTHE      N/A     22  19  89 S7        30.25R WCI  13
KIRKSVILLE     MOSUNNY   21  20  96 SW5       30.23R WCI  15

$$
MOZ066>068-077>081-088>096-101>105-281600-
...SOUTHWEST MISSOURI...

CITY           SKY/WX    TMP DP  RH WIND       PRES   REMARKS
SPRINGFIELD    CLOUDY    27  22  81 CALM      30.23S
JOPLIN         PTSUNNY   24  22  91 CALM      30.27R

$$
MOZ032>034-039>042-045>050-055>058-069>072-281600-
...CENTRAL MISSOURI...

CITY           SKY/WX    TMP DP  RH WIND       PRES   REMARKS
COLUMBIA       PTSUNNY   27  23  85 CALM      30.25R
JEFFERSON CITY CLOUDY    29  23  78 CALM      30.28R
ROLLA          CLOUDY    27  22  81 CALM      30.22R
SEDALIA        CLOUDY    24  20  84 SW3       30.26R
WARRENSBURG    MOSUNNY   23  21  93 S5        30.27R WCI  17
OSAGE BEACH    CLOUDY    27  21  80 CALM      30.26R

$$
MOZ051-052-059>065-281600-
...EAST CENTRAL MISSOURI...

CITY           SKY/WX    TMP DP  RH WIND       PRES   REMARKS
ST LOUIS INTL  CLOUDY    32  24  72 NW6       30.25S WCI  26
SPIRIT OF STL  CLOUDY    31  24  75 NW3       30.26R
ST CHARLES     CLOUDY    31  24  75 N5        30.26R WCI  26

$$
MOZ072>076-082>087-097>100-106>115-281600-
...SOUTH CENTRAL AND SOUTHEAST MISSOURI...

CITY           SKY/WX    TMP DP  RH WIND       PRES   REMARKS
CAPE GIRARDEAU CLOUDY    35  30  82 N8        30.24S WCI  29
POPLAR BLUFF   CLOUDY    34  29  82 N7        30.24R WCI  28
WEST PLAINS    CLOUDY    29  23  78 NW3       30.23R

$$



USA.gov is the U.S. government's official web portal to all federal, state and local government web resources and services.